Time,TemperatureF,DewpointF,PressureIn,WindDirection,WindDirectionDegrees,WindSpeedMPH,WindSpeedGustMPH,Humidity,HourlyPrecipIn,Conditions,Clouds,dailyrainin,SoftwareType,DateUTC
2013-11-19 00:01:00,45.4,30.6,29.95,NW,304,3.0,12.0,56,0.00,,OVC050,0.00,VWS V14.01,2013-11-19 05:01:00,
2013-11-19 00:02:00,45.4,30.6,29.95,NNE,15,4.0,12.0,56,0.00,,OVC050,0.00,VWS V14.01,2013-11-19 05:02:00,
2013-11-19 00:07:00,45.3,31.0,29.95,NNW,348,6.0,13.0,57,0.00,,OVC050,0.00,VWS V14.01,2013-11-19 05:07:00,
2013-11-19 00:12:00,45.2,30.9,29.96,NW,326,4.0,16.0,57,0.00,,OVC050,0.00,VWS V14.01,2013-11-19 05:12:00,
2013-11-19 00:17:00,45.0,31.1,29.96,North,357,11.0,17.0,58,0.00,,OVC050,0.00,VWS V14.01,2013-11-19 05:17:00,
2013-11-19 00:22:00,44.7,30.9,29.96,NW,306,7.0,17.0,58,0.00,,OVC050,0.00,VWS V14.01,2013-11-19 05:22:00,
2013-11-19 00:27:00,44.6,31.2,29.96,NW,318,4.0,17.0,59,0.00,,OVC050,0.00,VWS V14.01,2013-11-19 05:27:00,
2013-11-19 00:32:00,44.4,31.4,29.97,NW,306,4.0,10.0,60,0.00,,OVC050,0.00,VWS V14.01,2013-11-19 05:32:00,
2013-11-19 00:37:00,44.3,31.7,29.96,WNW,303,2.0,10.0,61,0.00,,OVC050,0.00,VWS V14.01,2013-11-19 05:37:00,
2013-11-19 00:42:00,44.0,31.0,29.96,WNW,301,4.0,11.0,60,0.00,,OVC050,0.00,VWS V14.01,2013-11-19 05:42:00,
2013-11-19 00:47:00,43.8,30.4,29.97,North,351,5.0,12.0,59,0.00,,OVC050,0.00,VWS V14.01,2013-11-19 05:47:00,
2013-11-19 00:52:00,43.5,30.1,29.97,NW,314,3.0,19.0,59,0.00,,OVC050,0.00,VWS V14.01,2013-11-19 05:52:00,
2013-11-19 00:57:00,43.3,30.4,29.97,WNW,297,10.0,19.0,60,0.00,,OVC050,0.00,VWS V14.01,2013-11-19 05:57:00,
2013-11-19 01:02:00,43.1,30.6,29.98,NW,306,9.0,13.0,61,0.00,,OVC055,0.00,VWS V14.01,2013-11-19 06:02:00,
2013-11-19 01:07:00,42.9,30.8,29.98,WNW,295,11.0,13.0,62,0.00,,OVC055,0.00,VWS V14.01,2013-11-19 06:07:00,
2013-11-19 01:12:00,42.8,30.7,29.99,NNE,24,9.0,13.0,62,0.00,,OVC055,0.00,VWS V14.01,2013-11-19 06:12:00,
2013-11-19 01:17:00,42.6,30.9,29.99,NW,321,2.0,15.0,63,0.00,,OVC055,0.00,VWS V14.01,2013-11-19 06:17:00,
2013-11-19 01:22:00,42.5,30.8,29.99,North,358,4.0,15.0,63,0.00,,OVC055,0.00,VWS V14.01,2013-11-19 06:22:00,
2013-11-19 01:27:00,42.3,30.6,29.99,WNW,302,2.0,15.0,63,0.00,,OVC055,0.00,VWS V14.01,2013-11-19 06:27:00,
2013-11-19 01:32:00,42.2,30.1,29.99,WNW,282,9.0,12.0,62,0.00,,OVC055,0.00,VWS V14.01,2013-11-19 06:32:00,
2013-11-19 01:37:00,42.0,29.9,29.99,NW,310,7.0,12.0,62,0.00,,OVC055,0.00,VWS V14.01,2013-11-19 06:37:00,
2013-11-19 01:42:00,42.0,30.3,30.00,WNW,282,10.0,12.0,63,0.00,,OVC055,0.00,VWS V14.01,2013-11-19 06:42:00,
2013-11-19 01:47:00,41.8,30.1,29.99,North,354,4.0,12.0,63,0.00,,OVC055,0.00,VWS V14.01,2013-11-19 06:47:00,
2013-11-19 01:52:00,41.8,30.1,29.99,WNW,293,8.0,12.0,63,0.00,,OVC055,0.00,VWS V14.01,2013-11-19 06:52:00,
2013-11-19 01:57:00,41.6,29.2,30.00,WNW,298,4.0,18.0,61,0.00,,OVC055,0.00,VWS V14.01,2013-11-19 06:57:00,
2013-11-19 02:02:00,41.5,29.1,30.00,WNW,301,6.0,13.0,61,0.00,,OVC050,0.00,VWS V14.01,2013-11-19 07:02:00,
2013-11-19 02:07:00,41.3,28.9,30.00,WNW,302,2.0,13.0,61,0.00,,OVC050,0.00,VWS V14.01,2013-11-19 07:07:00,
2013-11-19 02:12:00,41.2,29.2,30.00,NW,317,1.0,13.0,62,0.00,,OVC050,0.00,VWS V14.01,2013-11-19 07:12:00,
2013-11-19 02:17:00,41.1,29.1,30.00,NNW,327,4.0,13.0,62,0.00,,OVC050,0.00,VWS V14.01,2013-11-19 07:17:00,
2013-11-19 02:22:00,41.0,29.0,30.00,NW,308,2.0,13.0,62,0.00,,OVC050,0.00,VWS V14.01,2013-11-19 07:22:00,
2013-11-19 02:27:00,40.9,28.5,30.00,WNW,297,5.0,13.0,61,0.00,,OVC050,0.00,VWS V14.01,2013-11-19 07:27:00,
2013-11-19 02:32:00,40.9,27.7,30.01,NNW,335,5.0,14.0,59,0.00,,OVC050,0.00,VWS V14.01,2013-11-19 07:32:00,
2013-11-19 02:37:00,40.8,27.6,30.01,NNW,339,4.0,14.0,59,0.00,,OVC050,0.00,VWS V14.01,2013-11-19 07:37:00,
2013-11-19 02:42:00,40.7,27.5,30.01,WNW,300,8.0,14.0,59,0.00,,OVC050,0.00,VWS V14.01,2013-11-19 07:42:00,
2013-11-19 02:47:00,40.7,27.5,30.01,WNW,293,6.0,14.0,59,0.00,,OVC050,0.00,VWS V14.01,2013-11-19 07:47:00,
2013-11-19 02:52:00,40.6,27.4,30.01,NW,315,8.0,14.0,59,0.00,,OVC050,0.00,VWS V14.01,2013-11-19 07:52:00,
2013-11-19 02:57:00,40.5,27.3,30.02,NW,306,3.0,14.0,59,0.00,,OVC050,0.00,VWS V14.01,2013-11-19 07:57:00,
2013-11-19 03:02:00,40.5,27.3,30.01,WNW,288,6.0,11.0,59,0.00,,OVC046,0.00,VWS V14.01,2013-11-19 08:02:00,
2013-11-19 03:07:00,40.4,27.2,30.02,WNW,287,4.0,11.0,59,0.00,,OVC046,0.00,VWS V14.01,2013-11-19 08:07:00,
2013-11-19 03:12:00,40.4,27.2,30.02,West,264,1.0,11.0,59,0.00,,OVC046,0.00,VWS V14.01,2013-11-19 08:12:00,
2013-11-19 03:17:00,40.3,27.5,30.02,WNW,293,0.0,11.0,60,0.00,,OVC046,0.00,VWS V14.01,2013-11-19 08:17:00,
2013-11-19 03:22:00,40.2,27.4,30.02,NW,304,3.0,11.0,60,0.00,,OVC046,0.00,VWS V14.01,2013-11-19 08:22:00,
2013-11-19 03:27:00,40.2,27.4,30.02,WNW,302,1.0,12.0,60,0.00,,OVC046,0.00,VWS V14.01,2013-11-19 08:27:00,
2013-11-19 03:32:00,40.1,27.4,30.02,WNW,297,2.0,3.0,60,0.00,,OVC046,0.00,VWS V14.01,2013-11-19 08:32:00,
2013-11-19 03:37:00,40.1,27.4,30.03,NW,322,6.0,10.0,60,0.00,,OVC046,0.00,VWS V14.01,2013-11-19 08:37:00,
2013-11-19 03:42:00,40.1,27.8,30.03,WNW,297,1.0,10.0,61,0.00,,OVC046,0.00,VWS V14.01,2013-11-19 08:42:00,
2013-11-19 03:47:00,40.1,27.4,30.03,NW,316,5.0,12.0,60,0.00,,OVC046,0.00,VWS V14.01,2013-11-19 08:47:00,
2013-11-19 03:52:00,40.1,27.4,30.03,NNW,334,2.0,14.0,60,0.00,,OVC046,0.00,VWS V14.01,2013-11-19 08:52:00,
2013-11-19 03:57:00,40.1,27.8,30.03,NNW,341,3.0,14.0,61,0.00,,OVC046,0.00,VWS V14.01,2013-11-19 08:57:00,
2013-11-19 04:02:00,40.0,27.6,30.03,NW,324,5.0,8.0,61,0.00,,OVC047,0.00,VWS V14.01,2013-11-19 09:02:00,
2013-11-19 04:07:00,40.0,27.6,30.03,North,352,2.0,10.0,61,0.00,,OVC047,0.00,VWS V14.01,2013-11-19 09:07:00,
2013-11-19 04:12:00,40.0,27.6,30.04,NNW,338,3.0,12.0,61,0.00,,OVC047,0.00,VWS V14.01,2013-11-19 09:12:00,
2013-11-19 04:17:00,40.0,27.6,30.04,NNW,333,1.0,12.0,61,0.00,,OVC047,0.00,VWS V14.01,2013-11-19 09:17:00,
2013-11-19 04:22:00,39.9,27.2,30.04,NNW,337,4.0,12.0,60,0.00,,OVC047,0.00,VWS V14.01,2013-11-19 09:22:00,
2013-11-19 04:27:00,39.9,27.6,30.04,WNW,288,5.0,12.0,61,0.00,,OVC047,0.00,VWS V14.01,2013-11-19 09:27:00,
2013-11-19 04:32:00,39.9,27.6,30.05,NNW,329,0.0,9.0,61,0.00,,OVC047,0.00,VWS V14.01,2013-11-19 09:32:00,
2013-11-19 04:37:00,39.9,27.6,30.05,NW,320,2.0,9.0,61,0.00,,OVC047,0.00,VWS V14.01,2013-11-19 09:37:00,
2013-11-19 04:42:00,39.8,27.5,30.05,NW,304,2.0,9.0,61,0.00,,OVC047,0.00,VWS V14.01,2013-11-19 09:42:00,
2013-11-19 04:47:00,39.8,27.9,30.05,WNW,298,3.0,9.0,62,0.00,,OVC047,0.00,VWS V14.01,2013-11-19 09:47:00,
2013-11-19 04:52:00,39.8,27.5,30.06,NW,305,0.0,9.0,61,0.00,,OVC047,0.00,VWS V14.01,2013-11-19 09:52:00,
2013-11-19 04:57:00,39.8,27.9,30.06,NW,306,1.0,9.0,62,0.00,,OVC047,0.00,VWS V14.01,2013-11-19 09:57:00,
2013-11-19 05:02:00,39.8,27.5,30.06,WNW,301,3.0,12.0,61,0.00,,OVC043,0.00,VWS V14.01,2013-11-19 10:02:00,
2013-11-19 05:07:00,39.8,27.1,30.07,WNW,301,7.0,12.0,60,0.00,,OVC043,0.00,VWS V14.01,2013-11-19 10:07:00,
2013-11-19 05:12:00,39.8,27.1,30.07,NNW,328,1.0,12.0,60,0.00,,OVC043,0.00,VWS V14.01,2013-11-19 10:12:00,
2013-11-19 05:18:00,39.8,27.1,30.07,North,10,4.0,12.0,60,0.00,,OVC043,0.00,VWS V14.01,2013-11-19 10:18:00,
2013-11-19 05:23:00,39.8,27.1,30.07,NW,310,0.0,12.0,60,0.00,,OVC043,0.00,VWS V14.01,2013-11-19 10:23:00,
2013-11-19 05:28:00,39.8,27.1,30.08,North,349,4.0,12.0,60,0.00,,OVC043,0.00,VWS V14.01,2013-11-19 10:28:00,
2013-11-19 05:33:00,39.8,27.1,30.07,WNW,303,0.0,4.0,60,0.00,,OVC043,0.00,VWS V14.01,2013-11-19 10:33:00,
2013-11-19 05:37:00,39.7,27.0,30.08,WNW,292,2.0,9.0,60,0.00,,OVC043,0.00,VWS V14.01,2013-11-19 10:37:00,
2013-11-19 05:43:00,39.8,27.1,30.08,West,275,1.0,9.0,60,0.00,,OVC043,0.00,VWS V14.01,2013-11-19 10:43:00,
2013-11-19 05:48:00,39.8,27.1,30.08,West,281,1.0,9.0,60,0.00,,OVC043,0.00,VWS V14.01,2013-11-19 10:48:00,
2013-11-19 05:53:00,39.7,27.4,30.09,North,359,6.0,9.0,61,0.00,,OVC043,0.00,VWS V14.01,2013-11-19 10:53:00,
2013-11-19 05:58:00,39.7,27.4,30.09,NW,321,0.0,9.0,61,0.00,,OVC043,0.00,VWS V14.01,2013-11-19 10:58:00,
2013-11-19 06:03:00,39.7,27.4,30.09,North,351,3.0,8.0,61,0.00,,OVC047,0.00,VWS V14.01,2013-11-19 11:03:00,
2013-11-19 06:08:00,39.7,27.4,30.09,NNW,327,4.0,8.0,61,0.00,,OVC047,0.00,VWS V14.01,2013-11-19 11:08:00,
2013-11-19 06:13:00,39.7,27.4,30.10,NW,306,0.0,11.0,61,0.00,,OVC047,0.00,VWS V14.01,2013-11-19 11:13:00,
2013-11-19 06:18:00,39.7,27.8,30.10,WNW,303,4.0,11.0,62,0.00,,OVC047,0.00,VWS V14.01,2013-11-19 11:18:00,
2013-11-19 06:23:00,39.8,27.9,30.10,NNW,345,5.0,14.0,62,0.00,,OVC047,0.00,VWS V14.01,2013-11-19 11:23:00,
2013-11-19 06:28:00,39.7,27.8,30.10,NNE,25,0.0,14.0,62,0.00,,OVC047,0.00,VWS V14.01,2013-11-19 11:28:00,
2013-11-19 06:33:00,39.7,27.8,30.10,NW,305,3.0,5.0,62,0.00,,OVC047,0.00,VWS V14.01,2013-11-19 11:33:00,
2013-11-19 06:38:00,39.7,27.8,30.10,NNW,334,4.0,10.0,62,0.00,,OVC047,0.00,VWS V14.01,2013-11-19 11:38:00,
2013-11-19 06:43:00,39.7,27.8,30.11,North,351,0.0,10.0,62,0.00,,OVC047,0.00,VWS V14.01,2013-11-19 11:43:00,
2013-11-19 06:48:00,39.7,27.8,30.11,WNW,293,3.0,10.0,62,0.00,,OVC047,0.00,VWS V14.01,2013-11-19 11:48:00,
2013-11-19 06:53:00,39.6,28.1,30.11,North,358,1.0,10.0,63,0.00,,OVC047,0.00,VWS V14.01,2013-11-19 11:53:00,
2013-11-19 06:58:00,39.6,27.7,30.11,West,278,2.0,10.0,62,0.00,,OVC047,0.00,VWS V14.01,2013-11-19 11:58:00,
2013-11-19 07:03:00,39.6,28.1,30.12,NNE,19,0.0,10.0,63,0.00,,OVC045,0.00,VWS V14.01,2013-11-19 12:03:00,
2013-11-19 07:08:00,39.6,27.7,30.12,North,7,7.0,11.0,62,0.00,,OVC045,0.00,VWS V14.01,2013-11-19 12:08:00,
2013-11-19 07:13:00,39.6,27.7,30.12,North,356,0.0,11.0,62,0.00,,OVC045,0.00,VWS V14.01,2013-11-19 12:13:00,
2013-11-19 07:18:00,39.6,27.7,30.12,NE,41,0.0,11.0,62,0.00,,OVC045,0.00,VWS V14.01,2013-11-19 12:18:00,
2013-11-19 07:23:00,39.5,27.6,30.13,NW,308,0.0,11.0,62,0.00,,OVC045,0.00,VWS V14.01,2013-11-19 12:23:00,
2013-11-19 07:28:00,39.5,27.6,30.13,NNE,15,6.0,11.0,62,0.00,,OVC045,0.00,VWS V14.01,2013-11-19 12:28:00,
2013-11-19 07:33:00,39.5,28.0,30.13,WSW,239,0.0,1.0,63,0.00,,OVC045,0.00,VWS V14.01,2013-11-19 12:33:00,
2013-11-19 07:38:00,39.5,28.0,30.13,North,351,0.0,4.0,63,0.00,,OVC045,0.00,VWS V14.01,2013-11-19 12:38:00,
2013-11-19 07:43:00,39.5,28.4,30.14,WNW,291,2.0,6.0,64,0.00,,OVC045,0.00,VWS V14.01,2013-11-19 12:43:00,
2013-11-19 07:48:00,39.4,27.9,30.14,WNW,303,1.0,6.0,63,0.00,,OVC045,0.00,VWS V14.01,2013-11-19 12:48:00,
2013-11-19 07:53:00,39.5,28.0,30.14,NNW,333,1.0,9.0,63,0.00,,OVC045,0.00,VWS V14.01,2013-11-19 12:53:00,
2013-11-19 07:58:00,39.5,28.0,30.14,NNW,328,0.0,9.0,63,0.00,,OVC045,0.00,VWS V14.01,2013-11-19 12:58:00,
2013-11-19 08:03:00,39.5,27.6,30.15,NE,39,3.0,11.0,62,0.00,,OVC043,0.00,VWS V14.01,2013-11-19 13:03:00,
2013-11-19 08:08:00,39.5,27.2,30.15,North,356,2.0,12.0,61,0.00,,OVC043,0.00,VWS V14.01,2013-11-19 13:08:00,
2013-11-19 08:13:00,39.6,27.7,30.15,NNE,25,1.0,12.0,62,0.00,,OVC043,0.00,VWS V14.01,2013-11-19 13:13:00,
2013-11-19 08:18:00,39.5,26.8,30.16,WNW,299,1.0,14.0,60,0.00,,OVC043,0.00,VWS V14.01,2013-11-19 13:18:00,
2013-11-19 08:23:00,39.5,26.8,30.15,NNE,14,7.0,14.0,60,0.00,,OVC043,0.00,VWS V14.01,2013-11-19 13:23:00,
2013-11-19 08:28:00,39.6,26.9,30.16,North,357,2.0,14.0,60,0.00,,OVC043,0.00,VWS V14.01,2013-11-19 13:28:00,
2013-11-19 08:33:00,39.7,27.0,30.16,North,358,3.0,10.0,60,0.00,,OVC043,0.00,VWS V14.01,2013-11-19 13:33:00,
2013-11-19 08:38:00,39.8,27.1,30.16,NNE,18,0.0,13.0,60,0.00,,OVC043,0.00,VWS V14.01,2013-11-19 13:38:00,
2013-11-19 08:43:00,39.9,27.2,30.16,North,2,3.0,13.0,60,0.00,,OVC043,0.00,VWS V14.01,2013-11-19 13:43:00,
2013-11-19 08:48:00,39.9,26.3,30.16,NNW,333,3.0,16.0,58,0.00,,OVC043,0.00,VWS V14.01,2013-11-19 13:48:00,
2013-11-19 08:53:00,39.9,26.8,30.17,NNW,344,4.0,16.0,59,0.00,,OVC043,0.00,VWS V14.01,2013-11-19 13:53:00,
2013-11-19 08:58:00,39.9,26.8,30.17,NNE,28,7.0,16.0,59,0.00,,OVC043,0.00,VWS V14.01,2013-11-19 13:58:00,
2013-11-19 09:03:00,40.0,26.8,30.18,NE,34,2.0,12.0,59,0.00,,OVC044,0.00,VWS V14.01,2013-11-19 14:03:00,
2013-11-19 09:08:00,40.1,26.9,30.18,NNE,12,0.0,12.0,59,0.00,,OVC044,0.00,VWS V14.01,2013-11-19 14:08:00,
2013-11-19 09:13:00,40.2,27.0,30.18,North,358,4.0,12.0,59,0.00,,OVC044,0.00,VWS V14.01,2013-11-19 14:13:00,
2013-11-19 09:18:00,40.3,26.7,30.19,North,355,9.0,12.0,58,0.00,,OVC044,0.00,VWS V14.01,2013-11-19 14:18:00,
2013-11-19 09:23:00,40.2,27.0,30.19,NNW,344,3.0,14.0,59,0.00,,OVC044,0.00,VWS V14.01,2013-11-19 14:23:00,
2013-11-19 09:28:00,40.3,27.1,30.19,NNE,15,5.0,14.0,59,0.00,,OVC044,0.00,VWS V14.01,2013-11-19 14:28:00,
2013-11-19 09:33:00,40.4,27.2,30.19,WNW,289,5.0,12.0,59,0.00,,OVC044,0.00,VWS V14.01,2013-11-19 14:33:00,
2013-11-19 09:38:00,40.5,26.9,30.19,North,350,6.0,12.0,58,0.00,,OVC044,0.00,VWS V14.01,2013-11-19 14:38:00,
2013-11-19 09:43:00,40.6,27.0,30.19,NNW,343,6.0,16.0,58,0.00,,OVC044,0.00,VWS V14.01,2013-11-19 14:43:00,
2013-11-19 09:48:00,40.7,27.1,30.19,North,1,0.0,16.0,58,0.00,,OVC044,0.00,VWS V14.01,2013-11-19 14:48:00,
2013-11-19 09:53:00,40.8,27.6,30.19,NNW,346,5.0,16.0,59,0.00,,OVC044,0.00,VWS V14.01,2013-11-19 14:53:00,
2013-11-19 09:58:00,40.7,27.1,30.19,North,7,4.0,16.0,58,0.00,,OVC044,0.00,VWS V14.01,2013-11-19 14:58:00,
2013-11-19 10:03:00,40.8,27.2,30.19,NNE,14,3.0,8.0,58,0.00,,OVC045,0.00,VWS V14.01,2013-11-19 15:03:00,
2013-11-19 10:08:00,40.9,27.3,30.19,North,355,11.0,11.0,58,0.00,,OVC045,0.00,VWS V14.01,2013-11-19 15:08:00,
2013-11-19 10:13:00,40.8,27.2,30.20,NE,36,2.0,14.0,58,0.00,,OVC045,0.00,VWS V14.01,2013-11-19 15:13:00,
2013-11-19 10:18:00,40.8,27.2,30.20,NNW,337,1.0,14.0,58,0.00,,OVC045,0.00,VWS V14.01,2013-11-19 15:18:00,
2013-11-19 10:23:00,40.9,26.9,30.20,North,2,7.0,14.0,57,0.00,,OVC045,0.00,VWS V14.01,2013-11-19 15:23:00,
2013-11-19 10:28:00,41.0,27.0,30.21,North,2,4.0,17.0,57,0.00,,OVC045,0.00,VWS V14.01,2013-11-19 15:28:00,
2013-11-19 10:33:00,41.1,26.6,30.21,NNW,339,4.0,11.0,56,0.00,,OVC045,0.00,VWS V14.01,2013-11-19 15:33:00,
2013-11-19 10:38:00,41.1,26.6,30.21,North,360,16.0,16.0,56,0.00,,OVC045,0.00,VWS V14.01,2013-11-19 15:38:00,
2013-11-19 10:43:00,41.0,26.5,30.21,North,9,2.0,16.0,56,0.00,,OVC045,0.00,VWS V14.01,2013-11-19 15:43:00,
2013-11-19 10:48:00,40.9,26.4,30.21,North,350,3.0,16.0,56,0.00,,OVC045,0.00,VWS V14.01,2013-11-19 15:48:00,
2013-11-19 10:53:00,41.0,27.0,30.21,NNE,17,2.0,16.0,57,0.00,,OVC045,0.00,VWS V14.01,2013-11-19 15:53:00,
2013-11-19 10:58:00,41.1,27.0,30.22,NNE,13,3.0,16.0,57,0.00,,OVC045,0.00,VWS V14.01,2013-11-19 15:58:00,
2013-11-19 11:03:00,41.2,26.7,30.22,North,352,3.0,12.0,56,0.00,,OVC046,0.00,VWS V14.01,2013-11-19 16:03:00,
2013-11-19 11:08:00,41.1,26.6,30.22,North,8,1.0,12.0,56,0.00,,OVC046,0.00,VWS V14.01,2013-11-19 16:08:00,
2013-11-19 11:13:00,41.2,26.7,30.21,NNE,12,4.0,12.0,56,0.00,,OVC046,0.00,VWS V14.01,2013-11-19 16:13:00,
2013-11-19 11:18:00,41.2,26.7,30.21,NNW,344,3.0,12.0,56,0.00,,OVC046,0.00,VWS V14.01,2013-11-19 16:18:00,
2013-11-19 11:23:00,41.3,27.2,30.21,NW,306,3.0,12.0,57,0.00,,OVC046,0.00,VWS V14.01,2013-11-19 16:23:00,
2013-11-19 11:28:00,41.5,27.0,30.21,North,3,5.0,12.0,56,0.00,,OVC046,0.00,VWS V14.01,2013-11-19 16:28:00,
2013-11-19 11:33:00,41.4,26.5,30.22,West,271,3.0,11.0,55,0.00,,OVC046,0.00,VWS V14.01,2013-11-19 16:33:00,
2013-11-19 11:38:00,41.7,26.7,30.22,WNW,296,4.0,11.0,55,0.00,,OVC046,0.00,VWS V14.01,2013-11-19 16:38:00,
2013-11-19 11:43:00,41.6,26.2,30.22,NNE,21,0.0,13.0,54,0.00,,OVC046,0.00,VWS V14.01,2013-11-19 16:43:00,
2013-11-19 11:48:00,41.7,26.7,30.22,North,4,2.0,13.0,55,0.00,,OVC046,0.00,VWS V14.01,2013-11-19 16:48:00,
2013-11-19 11:53:00,42.1,27.1,30.22,NNW,347,4.0,13.0,55,0.00,,OVC046,0.00,VWS V14.01,2013-11-19 16:53:00,
2013-11-19 11:58:00,42.5,26.1,30.22,North,3,3.0,13.0,52,0.00,,OVC046,0.00,VWS V14.01,2013-11-19 16:58:00,
2013-11-19 12:03:00,42.6,26.2,30.23,NW,321,2.0,16.0,52,0.00,,OVC042,0.00,VWS V14.01,2013-11-19 17:03:00,
2013-11-19 12:08:00,42.5,26.1,30.22,NW,309,6.0,16.0,52,0.00,,OVC042,0.00,VWS V14.01,2013-11-19 17:08:00,
2013-11-19 12:13:00,42.6,27.1,30.22,NNW,340,0.0,16.0,54,0.00,,OVC042,0.00,VWS V14.01,2013-11-19 17:13:00,
2013-11-19 12:18:00,42.9,26.5,30.22,North,11,10.0,16.0,52,0.00,,OVC042,0.00,VWS V14.01,2013-11-19 17:18:00,
2013-11-19 12:23:00,43.1,27.6,30.23,North,359,4.0,16.0,54,0.00,,OVC042,0.00,VWS V14.01,2013-11-19 17:23:00,
2013-11-19 12:28:00,43.2,26.3,30.23,North,354,9.0,16.0,51,0.00,,OVC042,0.00,VWS V14.01,2013-11-19 17:28:00,
2013-11-19 12:33:00,43.0,27.0,30.23,NNE,27,2.0,10.0,53,0.00,,OVC042,0.00,VWS V14.01,2013-11-19 17:33:00,
2013-11-19 12:35:00,43.0,27.0,30.23,NNE,22,9.0,10.0,53,0.00,,OVC042,0.00,VWS V14.01,2013-11-19 17:35:00,
2013-11-19 12:40:00,42.8,26.9,30.23,WNW,282,6.0,13.0,53,0.00,,OVC042,0.00,VWS V14.01,2013-11-19 17:40:00,
2013-11-19 12:45:00,43.3,26.4,30.23,WNW,299,4.0,13.0,51,0.00,,OVC042,0.00,VWS V14.01,2013-11-19 17:45:00,
2013-11-19 12:50:00,43.5,27.1,30.23,NE,46,1.0,13.0,52,0.00,,OVC042,0.00,VWS V14.01,2013-11-19 17:50:00,
2013-11-19 12:55:00,43.3,25.9,30.23,North,353,5.0,14.0,50,0.00,,OVC042,0.00,VWS V14.01,2013-11-19 17:55:00,
2013-11-19 13:00:00,42.9,26.5,30.24,NNE,12,7.0,14.0,52,0.00,,OVC042,0.00,VWS V14.01,2013-11-19 18:00:00,
2013-11-19 13:05:00,42.5,26.1,30.24,North,357,3.0,14.0,52,0.00,,OVC049,0.00,VWS V14.01,2013-11-19 18:05:00,
2013-11-19 13:10:00,42.3,26.4,30.23,NNW,331,5.0,14.0,53,0.00,,OVC049,0.00,VWS V14.01,2013-11-19 18:10:00,
2013-11-19 13:15:00,42.5,26.1,30.24,NNW,340,4.0,14.0,52,0.00,,OVC049,0.00,VWS V14.01,2013-11-19 18:15:00,
2013-11-19 13:20:00,42.7,25.9,30.24,NNE,13,5.0,14.0,51,0.00,,OVC049,0.00,VWS V14.01,2013-11-19 18:20:00,
2013-11-19 13:25:00,42.5,25.7,30.24,North,1,4.0,14.0,51,0.00,,OVC049,0.00,VWS V14.01,2013-11-19 18:25:00,
2013-11-19 13:30:00,42.7,25.9,30.24,North,2,12.0,14.0,51,0.00,,OVC049,0.00,VWS V14.01,2013-11-19 18:30:00,
2013-11-19 13:35:00,42.7,26.3,30.24,NNW,344,1.0,14.0,52,0.00,,OVC049,0.00,VWS V14.01,2013-11-19 18:35:00,
2013-11-19 13:40:00,42.7,26.3,30.24,NNE,19,6.0,14.0,52,0.00,,OVC049,0.00,VWS V14.01,2013-11-19 18:40:00,
2013-11-19 13:45:00,42.6,26.2,30.24,NNW,347,9.0,14.0,52,0.00,,OVC049,0.00,VWS V14.01,2013-11-19 18:45:00,
2013-11-19 13:50:00,42.4,26.5,30.24,North,349,2.0,14.0,53,0.00,,OVC049,0.00,VWS V14.01,2013-11-19 18:50:00,
2013-11-19 13:55:00,42.2,26.3,29.78,NNE,16,4.0,14.0,53,0.00,,OVC049,0.00,VWS V14.01,2013-11-19 18:55:00,
2013-11-19 14:00:00,40.9,25.5,29.81,NNW,343,2.0,2.0,54,0.00,,OVC049,0.00,VWS V14.01,2013-11-19 19:00:00,
2013-11-19 14:05:00,42.5,26.6,30.24,NNW,346,3.0,6.0,53,0.00,,BKN050,0.00,VWS V14.01,2013-11-19 19:05:00,
2013-11-19 14:10:00,42.7,25.9,30.24,NNW,328,3.0,14.0,51,0.00,,BKN050,0.00,VWS V14.01,2013-11-19 19:10:00,
2013-11-19 14:15:00,42.5,25.2,30.24,NNE,18,1.0,14.0,50,0.00,,BKN050,0.00,VWS V14.01,2013-11-19 19:15:00,
2013-11-19 14:20:00,42.6,25.8,30.25,West,270,2.0,14.0,51,0.00,,BKN050,0.00,VWS V14.01,2013-11-19 19:20:00,
2013-11-19 14:25:00,42.7,26.3,30.25,WNW,296,2.0,14.0,52,0.00,,BKN050,0.00,VWS V14.01,2013-11-19 19:25:00,
2013-11-19 14:30:00,42.7,25.9,30.25,NW,311,6.0,6.0,51,0.00,,BKN050,0.00,VWS V14.01,2013-11-19 19:30:00,
2013-11-19 14:35:00,42.6,25.8,30.25,West,272,5.0,9.0,51,0.00,,BKN050,0.00,VWS V14.01,2013-11-19 19:35:00,
2013-11-19 14:40:00,42.5,25.7,30.25,WNW,294,4.0,9.0,51,0.00,,BKN050,0.00,VWS V14.01,2013-11-19 19:40:00,
2013-11-19 14:45:00,42.4,26.0,30.25,WNW,292,3.0,9.0,52,0.00,,BKN050,0.00,VWS V14.01,2013-11-19 19:45:00,
2013-11-19 14:50:00,42.6,25.3,30.25,NW,319,0.0,9.0,50,0.00,,BKN050,0.00,VWS V14.01,2013-11-19 19:50:00,
2013-11-19 14:55:00,42.7,25.4,30.25,North,351,2.0,9.0,50,0.00,,BKN050,0.00,VWS V14.01,2013-11-19 19:55:00,
2013-11-19 15:00:00,42.6,25.3,30.25,NW,313,4.0,11.0,50,0.00,,SCT050,0.00,VWS V14.01,2013-11-19 20:00:00,
2013-11-19 15:05:00,42.5,25.2,30.25,NW,313,2.0,11.0,50,0.00,,SCT050,0.00,VWS V14.01,2013-11-19 20:05:00,
2013-11-19 15:10:00,42.2,25.4,30.26,NW,309,0.0,11.0,51,0.00,,SCT050,0.00,VWS V14.01,2013-11-19 20:10:00,
2013-11-19 15:15:00,42.1,25.8,30.26,North,2,8.0,11.0,52,0.00,,SCT050,0.00,VWS V14.01,2013-11-19 20:15:00,
2013-11-19 15:20:00,41.7,25.4,30.26,NNE,23,0.0,11.0,52,0.00,,SCT050,0.00,VWS V14.01,2013-11-19 20:20:00,
2013-11-19 15:25:00,41.4,25.1,30.26,NW,307,0.0,11.0,52,0.00,,SCT050,0.00,VWS V14.01,2013-11-19 20:25:00,
2013-11-19 15:30:00,41.1,25.3,30.27,NW,326,1.0,2.0,53,0.00,,SCT050,0.00,VWS V14.01,2013-11-19 20:30:00,
2013-11-19 15:35:00,41.2,24.9,30.27,NW,316,3.0,7.0,52,0.00,,SCT050,0.00,VWS V14.01,2013-11-19 20:35:00,
2013-11-19 15:40:00,41.3,25.0,30.27,NNE,12,3.0,11.0,52,0.00,,SCT050,0.00,VWS V14.01,2013-11-19 20:40:00,
2013-11-19 15:45:00,40.9,24.6,30.28,NNE,13,9.0,11.0,52,0.00,,SCT050,0.00,VWS V14.01,2013-11-19 20:45:00,
2013-11-19 15:50:00,40.8,24.5,30.28,NNW,346,2.0,11.0,52,0.00,,SCT050,0.00,VWS V14.01,2013-11-19 20:50:00,
2013-11-19 15:55:00,40.7,24.5,30.29,NNE,24,1.0,11.0,52,0.00,,SCT050,0.00,VWS V14.01,2013-11-19 20:55:00,
2013-11-19 16:00:00,40.6,24.4,30.29,North,10,0.0,1.0,52,0.00,,CLR,0.00,VWS V14.01,2013-11-19 21:00:00,
2013-11-19 16:05:00,40.5,24.3,30.29,North,353,0.0,7.0,52,0.00,,CLR,0.00,VWS V14.01,2013-11-19 21:05:00,
2013-11-19 16:10:00,40.3,24.1,30.29,North,7,1.0,7.0,52,0.00,,CLR,0.00,VWS V14.01,2013-11-19 21:10:00,
2013-11-19 16:15:00,40.1,24.4,30.30,North,10,0.0,8.0,53,0.00,,CLR,0.00,VWS V14.01,2013-11-19 21:15:00,
2013-11-19 16:20:00,40.0,24.3,30.30,North,6,0.0,8.0,53,0.00,,CLR,0.00,VWS V14.01,2013-11-19 21:20:00,
2013-11-19 16:25:00,42.5,26.6,30.05,NW,323,0.0,8.0,53,0.00,,CLR,0.00,VWS V14.01,2013-11-19 21:25:00,
2013-11-19 16:30:00,40.1,24.4,30.30,WSW,243,0.0,3.0,53,0.00,,CLR,0.00,VWS V14.01,2013-11-19 21:30:00,
2013-11-19 16:35:00,40.0,24.3,30.30,NW,307,0.0,3.0,53,0.00,,CLR,0.00,VWS V14.01,2013-11-19 21:35:00,
2013-11-19 16:40:00,39.7,24.0,30.31,NNW,336,0.0,5.0,53,0.00,,CLR,0.00,VWS V14.01,2013-11-19 21:40:00,
2013-11-19 16:45:00,39.3,24.1,30.31,NNW,336,0.0,5.0,54,0.00,,CLR,0.00,VWS V14.01,2013-11-19 21:45:00,
2013-11-19 16:50:00,38.9,23.7,30.31,NNW,336,0.0,5.0,54,0.00,,CLR,0.00,VWS V14.01,2013-11-19 21:50:00,
2013-11-19 16:55:00,38.5,23.8,30.31,NNW,337,0.0,5.0,55,0.00,,CLR,0.00,VWS V14.01,2013-11-19 21:55:00,
2013-11-19 17:00:00,38.0,23.7,30.32,NNW,337,0.0,2.0,56,0.00,,CLR,0.00,VWS V14.01,2013-11-19 22:00:00,
2013-11-19 17:05:00,37.7,23.9,30.32,NNW,337,0.0,2.0,57,0.00,,CLR,0.00,VWS V14.01,2013-11-19 22:05:00,
2013-11-19 17:10:00,37.2,23.8,30.32,NNW,337,0.0,2.0,58,0.00,,CLR,0.00,VWS V14.01,2013-11-19 22:10:00,
2013-11-19 17:15:00,36.7,24.1,30.32,NNW,337,0.0,2.0,60,0.00,,CLR,0.00,VWS V14.01,2013-11-19 22:15:00,
2013-11-19 17:20:00,36.1,24.4,30.33,NNW,337,0.0,2.0,62,0.00,,CLR,0.00,VWS V14.01,2013-11-19 22:20:00,
2013-11-19 17:25:00,35.7,24.4,30.33,NNW,339,0.0,2.0,63,0.00,,CLR,0.00,VWS V14.01,2013-11-19 22:25:00,
2013-11-19 17:30:00,35.3,24.0,30.33,NNW,339,0.0,0.0,63,0.00,,CLR,0.00,VWS V14.01,2013-11-19 22:30:00,
2013-11-19 17:35:00,34.8,24.2,30.33,NNW,339,0.0,0.0,65,0.00,,CLR,0.00,VWS V14.01,2013-11-19 22:35:00,
2013-11-19 17:40:00,34.3,24.1,30.33,NNW,338,0.0,1.0,66,0.00,,CLR,0.00,VWS V14.01,2013-11-19 22:40:00,
2013-11-19 17:45:00,33.9,24.1,30.34,NW,323,0.0,1.0,67,0.00,,CLR,0.00,VWS V14.01,2013-11-19 22:45:00,
2013-11-19 17:50:00,33.4,23.6,30.34,NW,324,0.0,1.0,67,0.00,,CLR,0.00,VWS V14.01,2013-11-19 22:50:00,
2013-11-19 17:55:00,33.0,23.6,30.34,NNW,327,0.0,1.0,68,0.00,,CLR,0.00,VWS V14.01,2013-11-19 22:55:00,
2013-11-19 18:00:00,32.5,23.5,30.34,NW,326,0.0,0.0,69,0.00,,CLR,0.00,VWS V14.01,2013-11-19 23:00:00,
2013-11-19 18:06:00,32.1,23.1,30.35,NNW,330,0.0,0.0,69,0.00,,CLR,0.00,VWS V14.01,2013-11-19 23:06:00,
2013-11-19 18:11:00,31.7,22.7,30.35,NNW,333,0.0,0.0,69,0.00,,CLR,0.00,VWS V14.01,2013-11-19 23:11:00,
2013-11-19 18:16:00,31.3,22.7,30.35,NNW,335,0.0,0.0,70,0.00,,CLR,0.00,VWS V14.01,2013-11-19 23:16:00,
2013-11-19 18:21:00,31.0,22.7,30.35,NNW,336,0.0,0.0,71,0.00,,CLR,0.00,VWS V14.01,2013-11-19 23:21:00,
2013-11-19 18:26:00,30.7,22.4,30.35,NNW,335,0.0,0.0,71,0.00,,CLR,0.00,VWS V14.01,2013-11-19 23:26:00,
2013-11-19 18:44:00,29.6,22.4,30.35,NNW,332,0.0,0.0,74,0.00,,CLR,0.00,VWS V14.01,2013-11-19 23:44:00,
2013-11-19 18:49:00,29.5,22.2,30.36,NNW,333,0.0,2.0,74,0.00,,CLR,0.00,VWS V14.01,2013-11-19 23:49:00,
2013-11-19 18:54:00,29.3,22.1,30.36,NNW,333,0.0,2.0,74,0.00,,CLR,0.00,VWS V14.01,2013-11-19 23:54:00,
2013-11-19 19:00:00,29.1,21.9,30.36,NNW,332,0.0,2.0,74,0.00,,CLR,0.00,VWS V14.01,2013-11-20 00:00:00,
2013-11-19 19:05:00,28.9,21.7,30.36,NNW,333,0.0,0.0,74,0.00,,CLR,0.00,VWS V14.01,2013-11-20 00:05:00,
2013-11-19 19:10:00,28.7,21.8,30.37,NW,320,0.0,0.0,75,0.00,,CLR,0.00,VWS V14.01,2013-11-20 00:10:00,
2013-11-19 19:14:00,28.5,21.9,30.37,NNW,330,0.0,0.0,76,0.00,,CLR,0.00,VWS V14.01,2013-11-20 00:14:00,
2013-11-19 19:19:00,28.3,21.4,30.37,NNW,330,0.0,0.0,75,0.00,,CLR,0.00,VWS V14.01,2013-11-20 00:19:00,
2013-11-19 19:25:00,28.1,21.2,30.37,NNW,330,0.0,0.0,75,0.00,,CLR,0.00,VWS V14.01,2013-11-20 00:25:00,
2013-11-19 19:30:00,27.9,21.3,30.37,NNW,329,0.0,0.0,76,0.00,,CLR,0.00,VWS V14.01,2013-11-20 00:30:00,
2013-11-19 19:35:00,27.7,21.1,30.38,NNW,330,0.0,0.0,76,0.00,,CLR,0.00,VWS V14.01,2013-11-20 00:35:00,
2013-11-19 19:40:00,27.7,21.4,30.38,NNW,329,0.0,0.0,77,0.00,,CLR,0.00,VWS V14.01,2013-11-20 00:40:00,
2013-11-19 19:45:00,27.6,21.4,30.38,NNW,329,0.0,0.0,77,0.00,,CLR,0.00,VWS V14.01,2013-11-20 00:45:00,
2013-11-19 19:50:00,27.7,21.4,30.38,NNW,332,0.0,1.0,77,0.00,,CLR,0.00,VWS V14.01,2013-11-20 00:50:00,
2013-11-19 19:55:00,27.7,21.4,30.38,NNW,332,0.0,1.0,77,0.00,,CLR,0.00,VWS V14.01,2013-11-20 00:55:00,
2013-11-19 20:00:00,27.6,21.4,30.38,NNW,332,0.0,1.0,77,0.00,,CLR,0.00,VWS V14.01,2013-11-20 01:00:00,
2013-11-19 20:05:00,27.5,21.2,30.39,NNW,333,0.0,0.0,77,0.00,,CLR,0.00,VWS V14.01,2013-11-20 01:05:00,
2013-11-19 20:10:00,27.4,21.5,30.39,NNW,333,0.0,0.0,78,0.00,,CLR,0.00,VWS V14.01,2013-11-20 01:10:00,
2013-11-19 20:15:00,27.2,21.3,30.39,NNW,333,0.0,0.0,78,0.00,,CLR,0.00,VWS V14.01,2013-11-20 01:15:00,
2013-11-19 20:20:00,27.2,21.3,30.39,NNW,333,0.0,2.0,78,0.00,,CLR,0.00,VWS V14.01,2013-11-20 01:20:00,
2013-11-19 20:25:00,27.1,21.5,30.40,NNW,332,0.0,2.0,79,0.00,,CLR,0.00,VWS V14.01,2013-11-20 01:25:00,
2013-11-19 20:30:00,27.0,21.4,30.39,NW,324,0.0,2.0,79,0.00,,CLR,0.00,VWS V14.01,2013-11-20 01:30:00,
2013-11-19 20:35:00,27.0,21.7,30.39,NW,318,0.0,1.0,80,0.00,,CLR,0.00,VWS V14.01,2013-11-20 01:35:00,
2013-11-19 20:40:00,26.9,21.3,30.39,NW,324,0.0,1.0,79,0.00,,CLR,0.00,VWS V14.01,2013-11-20 01:40:00,
2013-11-19 20:45:00,26.7,21.4,30.40,NW,318,0.0,1.0,80,0.00,,CLR,0.00,VWS V14.01,2013-11-20 01:45:00,
2013-11-19 20:50:00,26.6,21.3,30.41,NW,322,0.0,1.0,80,0.00,,CLR,0.00,VWS V14.01,2013-11-20 01:50:00,
2013-11-19 20:55:00,26.6,21.3,30.41,NW,325,0.0,1.0,80,0.00,,CLR,0.00,VWS V14.01,2013-11-20 01:55:00,
2013-11-19 21:00:00,26.5,21.2,30.41,NW,325,0.0,1.0,80,0.00,,CLR,0.00,VWS V14.01,2013-11-20 02:00:00,
2013-11-19 21:05:00,26.4,21.4,30.41,NW,324,0.0,0.0,81,0.00,,CLR,0.00,VWS V14.01,2013-11-20 02:05:00,
2013-11-19 21:10:00,26.4,21.4,30.41,NNW,328,0.0,0.0,81,0.00,,CLR,0.00,VWS V14.01,2013-11-20 02:10:00,
2013-11-19 21:15:00,26.3,21.3,30.42,NNW,328,0.0,0.0,81,0.00,,CLR,0.00,VWS V14.01,2013-11-20 02:15:00,
2013-11-19 21:20:00,26.3,21.3,30.42,NNW,328,0.0,0.0,81,0.00,,CLR,0.00,VWS V14.01,2013-11-20 02:20:00,
2013-11-19 21:25:00,26.2,21.2,30.42,NNW,329,0.0,0.0,81,0.00,,CLR,0.00,VWS V14.01,2013-11-20 02:25:00,
2013-11-19 21:30:00,26.2,21.2,30.42,NNW,329,0.0,0.0,81,0.00,,CLR,0.00,VWS V14.01,2013-11-20 02:30:00,
2013-11-19 21:35:00,26.1,21.1,30.42,NNW,330,0.0,0.0,81,0.00,,CLR,0.00,VWS V14.01,2013-11-20 02:35:00,
2013-11-19 21:40:00,26.0,21.3,30.42,NNW,330,0.0,0.0,82,0.00,,CLR,0.00,VWS V14.01,2013-11-20 02:40:00,
2013-11-19 21:45:00,25.9,20.9,30.43,NW,325,0.0,0.0,81,0.00,,CLR,0.00,VWS V14.01,2013-11-20 02:45:00,
2013-11-19 21:50:00,25.8,20.8,30.43,NW,324,0.0,0.0,81,0.00,,CLR,0.00,VWS V14.01,2013-11-20 02:50:00,
2013-11-19 21:55:00,25.7,21.0,30.43,NNW,327,0.0,0.0,82,0.00,,CLR,0.00,VWS V14.01,2013-11-20 02:55:00,
2013-11-19 22:00:00,25.7,21.0,30.44,NNW,329,0.0,0.0,82,0.00,,CLR,0.00,VWS V14.01,2013-11-20 03:00:00,
2013-11-19 22:05:00,25.6,20.9,30.43,NNW,329,0.0,0.0,82,0.00,,CLR,0.00,VWS V14.01,2013-11-20 03:05:00,
2013-11-19 22:10:00,25.6,20.9,30.44,NNW,329,0.0,0.0,82,0.00,,CLR,0.00,VWS V14.01,2013-11-20 03:10:00,
2013-11-19 22:15:00,25.5,20.8,30.44,NNW,329,0.0,0.0,82,0.00,,CLR,0.00,VWS V14.01,2013-11-20 03:15:00,
2013-11-19 22:20:00,25.5,20.8,30.44,NNW,330,0.0,0.0,82,0.00,,CLR,0.00,VWS V14.01,2013-11-20 03:20:00,
2013-11-19 22:25:00,25.3,20.6,30.44,NNW,327,0.0,0.0,82,0.00,,CLR,0.00,VWS V14.01,2013-11-20 03:25:00,
2013-11-19 22:30:00,25.2,20.5,30.45,NW,326,0.0,0.0,82,0.00,,CLR,0.00,VWS V14.01,2013-11-20 03:30:00,
2013-11-19 22:35:00,25.2,20.5,30.45,NNW,327,0.0,1.0,82,0.00,,CLR,0.00,VWS V14.01,2013-11-20 03:35:00,
2013-11-19 22:40:00,25.1,20.7,30.45,NNW,328,0.0,1.0,83,0.00,,CLR,0.00,VWS V14.01,2013-11-20 03:40:00,
2013-11-19 22:45:00,25.1,20.7,30.45,NNW,329,0.0,1.0,83,0.00,,CLR,0.00,VWS V14.01,2013-11-20 03:45:00,
2013-11-19 22:50:00,25.1,20.7,30.45,NNW,331,0.0,1.0,83,0.00,,CLR,0.00,VWS V14.01,2013-11-20 03:50:00,
2013-11-19 22:55:00,25.0,20.6,30.45,NNW,330,0.0,1.0,83,0.00,,CLR,0.00,VWS V14.01,2013-11-20 03:55:00,
2013-11-19 23:00:00,24.9,20.5,30.45,NNW,330,0.0,0.0,83,0.00,,CLR,0.00,VWS V14.01,2013-11-20 04:00:00,
2013-11-19 23:05:00,24.9,20.5,30.46,NNW,330,0.0,0.0,83,0.00,,CLR,0.00,VWS V14.01,2013-11-20 04:05:00,
2013-11-19 23:10:00,24.8,20.4,30.45,NNW,330,0.0,0.0,83,0.00,,CLR,0.00,VWS V14.01,2013-11-20 04:10:00,
2013-11-19 23:15:00,24.7,20.3,30.46,NNW,327,0.0,0.0,83,0.00,,CLR,0.00,VWS V14.01,2013-11-20 04:15:00,
2013-11-19 23:20:00,24.7,20.3,30.47,NW,326,0.0,0.0,83,0.00,,CLR,0.00,VWS V14.01,2013-11-20 04:20:00,
2013-11-19 23:25:00,24.6,20.5,30.46,NW,324,0.0,0.0,84,0.00,,CLR,0.00,VWS V14.01,2013-11-20 04:25:00,
2013-11-19 23:30:00,24.5,20.4,30.47,NW,323,0.0,0.0,84,0.00,,CLR,0.00,VWS V14.01,2013-11-20 04:30:00,
2013-11-19 23:35:00,24.5,20.4,30.47,NW,324,0.0,1.0,84,0.00,,CLR,0.00,VWS V14.01,2013-11-20 04:35:00,
2013-11-19 23:40:00,24.5,20.4,30.47,NW,326,0.0,1.0,84,0.00,,CLR,0.00,VWS V14.01,2013-11-20 04:40:00,
2013-11-19 23:45:00,24.5,20.4,30.47,NW,326,0.0,1.0,84,0.00,,CLR,0.00,VWS V14.01,2013-11-20 04:45:00,
2013-11-19 23:50:00,24.5,20.4,30.48,NNW,329,0.0,2.0,84,0.00,,CLR,0.00,VWS V14.01,2013-11-20 04:50:00,
2013-11-19 23:55:00,24.7,20.8,30.47,NNW,331,0.0,2.0,85,0.00,,CLR,0.00,VWS V14.01,2013-11-20 04:55:00,